Preview of NWS' New Version of Forecast
This preview is not operational and should not be used for support decisions.

Regional Weather Roundup (RWR)

Issued by Eureka, CA (EKA)

                            
000
ASUS46 KEKA 160813
RWREKA
Eureka Area Weather Roundup
National Weather Service Eureka CA
100 AM PDT TUE OCT 16 2018

Note: "fair" indicates few or no clouds below 12,000 feet with no
significant weather and/or obstructions to visibility.

Southwest Oregon...
  
CITY           SKY/WX    TMP DP  RH WIND       PRES   REMARKS
MEDFORD        CLEAR     45  26  47 CALM      30.24R                  
KLAMATH FALLS  CLEAR     30  21  69 NE3       30.35S                  
NORTH BEND     CLEAR     46  40  79 SE7         N/A                   
ROSEBURG       CLEAR     47  33  58 CALM      30.22S                  
SEXTON SUMMIT  CLEAR     58   7  13 E9        30.29S                  
BROOKINGS      CLEAR     53  26  35 CALM      30.18S                  

Northwest California...
  
CITY           SKY/WX    TMP DP  RH WIND       PRES   REMARKS
CRESCENT CITY  CLEAR     45  40  82 E3        30.17S                  
MCKINLEYVILLE  CLEAR     42  38  85 E5        30.16S                  
EUREKA           N/A     44  32  62 CALM      30.16F                  
FORTUNA          N/A     45  37  76 S10       30.17S                  
WEAVERVILLE    NOT AVBL                                               
TRINITY CENTER NOT AVBL                                               
UKIAH          CLEAR     46  32  58 CALM      30.14S                  

North & Central California...
  
CITY           SKY/WX    TMP DP  RH WIND       PRES   REMARKS
YREKA          CLEAR     36  13  38 S3        30.31S                  
MOUNT SHASTA   CLEAR     34  22  61 CALM      30.30S                  
REDDING        CLEAR     52  25  35 CALM      30.13S                  
RED BLUFF      CLEAR     56  17  21 NW9       30.12F                  
CHICO            N/A     55  16  21 NW3       30.10F                  
YUBA CITY      CLEAR     51  34  52 N9        30.07S                  
SACRAMENTO     CLEAR     49  34  56 CALM      30.06S                  
SANTA ROSA     CLEAR     44  37  76 W6        30.09S                  
NAPA           CLEAR     46  32  58 CALM      30.09S                  
SAN FRANCISCO  CLEAR     60  32  34 NW6       30.08F                  
OAKLAND        CLEAR     52  35  52 E5        30.10F                  
SALINAS        CLEAR     50  44  80 CALM      30.11F                  
MONTEREY       CLEAR     58  36  43 CALM      30.11F                  

$$